Stations météo

Publicité
Nancy/Essey, France (7180): Température de l'air & dewpoint: 15.07.2019 16:00:00 - 21.07.2019 16:00:00 (CEST)Nancy/Essey, France (7180): Température de l'air 5cm: 15.07.2019 16:00:00 - 21.07.2019 16:00:00 (CEST)Nancy/Essey, France (7180): Température de l'air -20cm & Température de l'air -100cm: 15.07.2019 16:00:00 - 21.07.2019 16:00:00 (CEST)Nancy/Essey, France (7180): Vitesse du vent & gusts: 15.07.2019 16:00:00 - 21.07.2019 16:00:00 (CEST)Nancy/Essey, France (7180): Direction du vent: 15.07.2019 16:00:00 - 21.07.2019 16:00:00 (CEST)Nancy/Essey, France (7180): reduced air pressure: 15.07.2019 16:00:00 - 21.07.2019 16:00:00 (CEST)Nancy/Essey, France (7180): visibility: 15.07.2019 16:00:00 - 21.07.2019 16:00:00 (CEST)Nancy/Essey, France (7180): Ensoleillement: 15.07.2019 16:00:00 - 21.07.2019 16:00:00 (CEST)Nancy/Essey, France (7180): Quantités de précipitations: 15.07.2019 16:00:00 - 21.07.2019 16:00:00 (CEST)
Date & Time tt [°C] td [°C] tt 5cm [°C] tt -20cm [°C] tt -100cm [°C] ff [km/h] ff [knt] fx [km/h] fx [knt] dd ppp [hPa] vv [km] sd [min] rr [mm]
21.07.2019 16:00:00 - - - - - - - - - - - - - -
21.07.2019 15:00:00 29,2 10,8 30,0 21,8 18,5 13 7 29 16 W 1020,7 60 37 0,0
21.07.2019 14:00:00 27,2 10,8 29,1 21,6 18,5 8 4 26 14 WNW 1021,2 58 28 0,0
21.07.2019 13:00:00 26,6 10,3 28,5 21,5 18,5 8 5 22 12 NW 1021,4 57 43 0,0
21.07.2019 12:00:00 24,5 13,4 27,0 21,4 18,5 8 5 19 10 W 1021,6 56 37 0,0
21.07.2019 11:00:00 23,8 14,2 25,9 21,4 18,5 9 5 32 18 WNW 1021,5 50 30 0,0
21.07.2019 10:00:00 23,1 15,2 26,6 21,5 18,5 5 3 16 8 WSW 1021,2 60 56 0,0
21.07.2019 09:00:00 21,8 14,9 24,0 21,6 18,5 7 4 20 11 W 1020,8 46 60 0,0
21.07.2019 08:00:00 20,8 14,9 20,3 21,7 18,5 8 4 14 8 WSW 1020,4 56 57 0,0
21.07.2019 07:00:00 19,8 14,6 16,9 21,8 18,5 4 2 16 8 S 1019,9 53 23 0,0
21.07.2019 06:00:00 19,0 14,5 16,6 21,9 18,5 6 3 11 6 NW 1019,3 60 0 0,0
21.07.2019 05:00:00 20,2 14,3 18,4 22,0 18,5 6 4 17 9 W 1018,7 60 0 0,0
21.07.2019 04:00:00 20,9 14,1 19,2 22,1 18,5 6 3 18 10 WSW 1018,0 60 0 0,0
21.07.2019 03:00:00 22,1 14,0 20,6 22,2 18,5 8 5 13 7 SW 1017,9 60 0 0,0
21.07.2019 02:00:00 22,3 14,2 20,1 22,3 18,5 7 4 11 6 SW 1017,5 60 0 0,0
21.07.2019 01:00:00 22,5 14,1 19,2 22,4 18,5 8 5 11 6 SSW 1016,9 60 0 0,0
21.07.2019 00:00:00 24,2 13,7 23,1 22,4 18,4 8 4 17 9 W 1016,0 60 0 0,0
20.07.2019 23:00:00 25,1 13,6 23,1 22,4 18,5 8 4 21 11 W 1015,7 60 0 0,0
20.07.2019 22:00:00 25,2 13,1 23,6 22,4 18,4 10 5 19 10 WNW 1014,6 60 1 0,0
20.07.2019 21:00:00 25,6 15,0 24,9 22,4 18,5 4 2 22 12 WNW 1013,7 60 23 0,0
20.07.2019 20:00:00 26,5 14,6 22,2 22,2 18,4 9 5 40 21 WSW 1012,8 60 0 0,0
20.07.2019 19:00:00 29,1 11,6 28,0 22,1 18,4 25 13 47 26 SW 1012,2 59 8 0,0
20.07.2019 18:00:00 25,9 16,7 21,6 21,9 18,5 11 6 61 33 SSW 1012,1 19 2 0,4
20.07.2019 17:00:00 30,5 11,5 25,4 21,7 18,5 19 10 44 24 WSW 1011,4 60 13 0,0
20.07.2019 16:00:00 32,5 9,9 33,2 21,4 18,4 25 14 53 29 SW 1011,2 56 40 0,0
20.07.2019 15:00:00 31,5 9,7 33,5 21,2 18,4 25 14 60 32 SW 1011,6 17 35 0,0
20.07.2019 14:00:00 31,8 12,1 36,0 21,0 18,4 23 13 46 25 SSW 1011,7 58 57 0,0
20.07.2019 13:00:00 30,1 11,6 31,4 20,9 18,5 24 13 43 23 SSW 1011,9 60 15 0,0
20.07.2019 12:00:00 28,9 11,9 30,0 20,8 18,4 19 11 36 19 SSW 1011,9 58 8 0,0
20.07.2019 11:00:00 28,2 12,1 31,0 20,8 18,4 16 9 36 19 SW 1011,9 20 60 0,0
20.07.2019 10:00:00 25,9 13,1 26,7 20,9 18,4 15 8 30 16 S 1012,1 60 56 0,0
20.07.2019 09:00:00 22,5 13,6 22,7 20,9 18,4 10 5 17 9 SSE 1012,4 34 58 0,0
20.07.2019 08:00:00 18,7 13,5 18,3 21,1 18,4 4 2 7 4 ESE 1012,7 20 36 0,0
20.07.2019 07:00:00 15,9 13,2 12,0 21,2 18,4 5 3 6 4 SE 1013,3 26 37 0,0
20.07.2019 06:00:00 13,8 12,5 11,1 21,4 18,4 2 1 6 3 ESE 1013,5 25 0 0,0
20.07.2019 05:00:00 14,6 13,0 12,1 21,5 18,4 1 1 5 3 ESE 1013,6 40 0 0,0
20.07.2019 04:00:00 14,4 12,4 12,3 21,7 18,4 3 2 5 3 E 1013,6 50 0 0,0
20.07.2019 03:00:00 15,8 12,7 13,0 21,8 18,4 2 1 9 5 SSE 1013,9 60 0 0,0
20.07.2019 02:00:00 16,2 12,9 13,9 21,9 18,4 3 2 7 4 E 1014,1 59 0 0,0
20.07.2019 01:00:00 17,0 12,9 14,5 22,0 18,4 5 3 9 5 E 1014,4 56 0 0,0
20.07.2019 00:00:00 18,1 13,4 15,5 22,1 18,4 4 2 8 4 E 1014,5 60 0 -
19.07.2019 23:00:00 19,7 13,6 17,0 22,1 18,4 4 2 8 4 ESE 1014,2 60 0 0,0
19.07.2019 22:00:00 21,6 13,8 19,0 22,1 18,4 5 3 11 6 NE 1014,0 20 1 0,0
19.07.2019 21:00:00 23,6 13,7 22,4 22,0 18,4 8 5 11 6 E 1013,7 60 0 0,0
19.07.2019 20:00:00 26,1 12,9 27,1 21,8 18,4 2 1 14 7 N 1013,5 60 15 0,0
19.07.2019 19:00:00 27,1 12,3 28,5 21,7 18,4 5 3 16 8 SSW 1013,7 58 21 0,0
19.07.2019 18:00:00 26,1 12,9 28,5 21,6 18,4 4 2 21 11 E 1014,3 60 6 0,0
19.07.2019 17:00:00 26,0 12,8 27,7 21,4 18,4 7 4 19 10 SSW 1014,5 60 10 0,0
19.07.2019 16:00:00 26,1 13,2 25,9 21,4 18,4 9 5 32 17 NW 1014,9 57 31 0,0
19.07.2019 15:00:00 24,4 13,3 25,2 21,3 18,4 11 6 22 12 WNW 1015,4 59 3 0,0
19.07.2019 14:00:00 23,3 14,0 23,3 21,2 18,4 12 7 24 13 WSW 1015,7 19 0 0,0
19.07.2019 13:00:00 22,5 14,3 22,3 21,2 18,4 13 7 31 17 WNW 1015,9 60 4 0,0
19.07.2019 12:00:00 23,5 13,7 23,1 21,1 18,4 8 4 26 14 SSW 1015,7 60 16 0,0
19.07.2019 11:00:00 21,9 14,3 23,5 21,1 18,4 12 6 24 13 WNW 1016,1 55 4 0,0
19.07.2019 10:00:00 21,0 14,4 22,3 21,2 18,4 8 4 18 10 W 1016,0 51 9 0,0
19.07.2019 09:00:00 20,3 13,0 20,4 21,3 18,4 9 5 13 7 SW 1016,1 59 3 0,0
19.07.2019 08:00:00 19,4 12,6 19,1 21,4 18,4 6 4 12 7 WNW 1015,7 53 15 0,0
19.07.2019 07:00:00 18,8 12,5 17,6 21,5 18,4 8 4 14 7 NW 1015,2 52 31 0,0
19.07.2019 06:00:00 18,9 11,2 16,0 21,6 18,4 6 4 15 8 WNW 1015,0 43 0 0,0
19.07.2019 05:00:00 18,1 11,4 15,6 21,7 18,4 2 1 10 6 ESE 1014,6 20 0 0,0
19.07.2019 04:00:00 18,1 11,6 16,7 21,8 18,4 6 3 10 5 SE 1014,4 20 0 0,0
19.07.2019 03:00:00 18,3 11,8 16,8 21,9 18,4 5 3 7 4 ESE 1014,4 19 0 0,0
19.07.2019 02:00:00 18,7 11,5 16,8 22,0 18,4 3 2 8 5 ESE 1014,3 43 0 0,0
19.07.2019 01:00:00 19,3 11,1 17,3 22,2 18,4 4 2 6 3 SE 1014,1 42 0 0,0
19.07.2019 00:00:00 19,2 11,2 17,1 22,2 18,4 3 2 7 4 E 1014,1 55 0 0,0
18.07.2019 23:00:00 20,0 11,0 18,2 22,2 18,4 6 3 6 4 SE 1013,9 59 0 0,0
18.07.2019 22:00:00 21,3 10,5 18,9 22,2 18,4 4 2 13 7 E 1013,4 1,8 0 0,0
18.07.2019 21:00:00 24,9 9,2 23,8 22,2 18,4 10 5 29 16 NNW 1012,5 60 0 0,0
18.07.2019 20:00:00 25,9 8,4 25,8 22,1 18,3 13 7 31 17 WNW 1012,1 60 0 0,0
18.07.2019 19:00:00 26,8 8,7 27,4 22,0 18,4 13 7 32 18 WNW 1011,7 54 0 0,0
18.07.2019 18:00:00 27,5 8,9 28,8 21,8 18,4 16 9 34 18 WNW 1011,2 20 10 0,0
18.07.2019 17:00:00 28,3 9,1 30,0 21,7 18,4 17 9 31 17 NW 1011,0 37 28 0,0
18.07.2019 16:00:00 29,1 8,2 29,4 21,5 18,4 17 9 35 19 W 1011,0 48 20 0,0
18.07.2019 15:00:00 28,3 7,5 29,7 21,4 18,3 11 6 29 16 WSW 1011,0 59 4 0,0
18.07.2019 14:00:00 27,9 7,7 29,2 21,2 18,4 15 8 28 15 WSW 1011,3 60 4 0,0
18.07.2019 13:00:00 28,7 7,8 32,4 21,1 18,4 15 8 29 15 SSW 1011,5 58 43 0,0
18.07.2019 12:00:00 27,5 7,9 30,0 21,0 18,4 14 7 25 13 SSW 1012,0 60 34 0,0
18.07.2019 11:00:00 25,8 7,8 26,5 21,0 18,4 8 4 17 9 SSE 1012,3 19 30 0,0
18.07.2019 10:00:00 23,5 9,1 25,1 21,1 18,4 7 4 12 7 SE 1012,6 53 44 0,0
18.07.2019 09:00:00 20,0 9,0 19,4 21,3 18,4 3 1 10 5 E 1013,0 20 49 0,0
18.07.2019 08:00:00 17,3 9,5 14,8 21,4 18,4 3 2 9 5 SE 1013,2 23 51 0,0
18.07.2019 07:00:00 13,7 8,9 10,5 21,6 18,4 0 0 7 4 E 1013,2 31 17 0,0
18.07.2019 06:00:00 12,9 8,6 10,5 21,8 18,4 4 2 5 3 ESE 1013,2 50 0 0,0
18.07.2019 05:00:00 14,0 8,6 11,8 21,9 18,4 4 2 6 3 E 1012,9 52 0 0,0
18.07.2019 04:00:00 15,0 8,5 12,0 22,1 18,4 2 1 8 4 ESE 1012,9 18 0 0,0
18.07.2019 03:00:00 15,0 8,5 12,4 22,3 18,4 5 3 8 4 E 1013,3 53 0 0,0
18.07.2019 02:00:00 16,8 8,2 13,9 22,4 18,4 5 3 8 4 SSE 1013,1 60 0 0,0
18.07.2019 01:00:00 18,0 8,0 14,8 22,5 18,4 1 1 9 5 E 1012,8 60 0 0,0
18.07.2019 00:00:00 21,3 6,8 18,9 22,6 18,3 6 3 11 6 W 1012,6 60 0 0,0
17.07.2019 23:00:00 22,5 5,8 20,6 22,6 18,4 8 4 19 11 WNW 1012,6 56 0 0,0
17.07.2019 22:00:00 23,4 4,8 22,1 22,6 18,4 11 6 26 14 NW 1012,4 60 0 0,0
17.07.2019 21:00:00 25,1 3,1 23,9 22,6 18,3 13 7 26 14 WNW 1011,8 60 0 0,0
17.07.2019 20:00:00 26,6 1,8 26,7 22,4 18,4 16 9 26 14 NW 1011,5 60 39 0,0
17.07.2019 19:00:00 27,8 1,3 29,5 22,2 18,4 13 7 29 16 W 1011,2 60 58 0,0
17.07.2019 18:00:00 28,8 2,9 32,4 21,9 18,4 11 6 31 17 NW 1011,3 19 60 0,0
17.07.2019 17:00:00 28,5 3,3 33,4 21,6 18,4 9 5 29 16 NW 1011,9 51 60 0,0
17.07.2019 16:00:00 28,2 5,1 34,2 21,3 18,3 8 5 27 14 WNW 1012,2 47 60 0,0
17.07.2019 15:00:00 27,5 4,5 33,9 21,0 18,4 13 7 28 15 NW 1012,7 20 60 0,0
17.07.2019 14:00:00 27,2 5,5 32,6 20,8 18,3 9 5 21 12 NW 1013,1 58 60 0,0
17.07.2019 13:00:00 26,0 6,1 31,5 20,7 18,4 9 5 19 11 SW 1013,7 49 60 0,0
17.07.2019 12:00:00 24,7 7,8 29,9 20,6 18,4 8 5 21 11 N 1014,1 57 60 0,0
17.07.2019 11:00:00 22,9 11,0 28,1 20,7 18,4 5 3 16 9 NW 1014,5 44 60 0,0
17.07.2019 10:00:00 20,4 11,3 25,2 20,7 18,4 5 3 14 7 W 1015,0 20 60 0,0
17.07.2019 09:00:00 18,1 10,7 20,3 20,9 18,4 4 2 10 5 NNW 1014,9 20 54 0,0
17.07.2019 08:00:00 15,9 10,6 12,6 21,0 18,4 1 0 7 4 E 1015,2 20 48 0,0
17.07.2019 07:00:00 12,2 8,7 7,6 21,3 18,4 1 1 5 3 ESE 1015,9 20 35 0,0
17.07.2019 06:00:00 10,6 8,7 6,6 21,5 18,4 5 3 8 5 SE 1016,1 20 0 0,0
17.07.2019 05:00:00 13,0 9,8 8,0 21,6 18,4 5 3 10 5 W 1016,0 33 0 0,0
17.07.2019 04:00:00 13,0 9,6 8,1 21,8 18,4 4 2 8 4 W 1016,2 32 0 0,0
17.07.2019 03:00:00 12,7 9,0 8,1 22,0 18,4 3 1 5 3 W 1016,5 34 0 0,0
17.07.2019 02:00:00 13,6 9,0 9,0 22,1 18,4 3 2 6 3 SSW 1016,6 35 0 0,0
17.07.2019 01:00:00 16,9 9,6 12,1 22,3 18,4 4 2 12 6 W 1016,3 20 0 0,0
17.07.2019 00:00:00 18,8 9,3 13,8 22,4 18,4 5 3 11 6 WNW 1016,0 43 0 0,0
16.07.2019 23:00:00 18,3 8,8 13,0 22,4 18,4 9 5 11 6 NE 1016,2 42 0 0,0
16.07.2019 22:00:00 20,9 7,5 16,3 22,4 18,4 4 2 13 7 N 1015,8 45 5 0,0
16.07.2019 21:00:00 23,4 5,8 22,1 22,3 18,4 9 5 19 10 NNW 1015,3 60 31 0,0
16.07.2019 20:00:00 24,7 6,0 25,0 22,1 18,4 11 6 24 13 NNW 1015,1 60 26 0,0
16.07.2019 19:00:00 25,9 6,0 28,3 21,8 18,4 12 7 28 15 NW 1014,9 49 57 0,0
16.07.2019 18:00:00 26,7 7,2 30,5 21,6 18,4 11 6 29 16 NNW 1015,1 38 60 0,0
16.07.2019 17:00:00 26,3 6,8 31,4 21,2 18,4 7 4 23 12 N 1015,3 52 60 0,0
16.07.2019 16:00:00 26,0 8,0 33,7 20,9 18,4 6 3 37 20 NW 1015,7 20 60 0,0
16.07.2019 15:00:00 25,4 8,0 32,3 20,6 18,4 6 3 28 15 SSE 1016,0 19 60 0,0
16.07.2019 14:00:00 24,3 8,3 30,6 20,4 18,4 7 4 20 11 SSW 1016,6 20 60 0,0
16.07.2019 13:00:00 22,5 9,6 28,8 20,2 18,4 9 5 23 12 N 1017,2 17 60 0,0
16.07.2019 12:00:00 21,7 9,6 27,1 20,2 18,4 6 3 20 11 N 1017,7 17 60 0,0
16.07.2019 11:00:00 19,9 9,7 25,3 20,2 18,4 9 5 20 11 NNE 1018,2 15 60 0,0
16.07.2019 10:00:00 18,2 9,3 22,9 20,3 18,4 8 5 16 9 NE 1018,5 12 60 0,0
16.07.2019 09:00:00 16,4 9,1 18,9 20,5 18,4 5 3 13 7 NE 1018,9 10 60 0,0
16.07.2019 08:00:00 15,6 8,8 14,7 20,7 18,4 4 2 9 5 NE 1018,9 8 60 0,0
16.07.2019 07:00:00 12,9 8,8 6,8 20,8 18,4 1 0 4 2 N 1019,0 7 34 0,0
16.07.2019 06:00:00 11,1 8,5 5,8 21,0 18,4 3 2 7 4 SSW 1019,2 7 0 0,0
16.07.2019 05:00:00 10,9 8,1 6,2 21,2 18,4 3 2 7 4 ENE 1019,2 8 0 0,0
16.07.2019 04:00:00 11,8 8,3 7,0 21,4 18,4 3 2 10 5 NE 1019,3 9 0 0,0
16.07.2019 03:00:00 12,1 8,9 7,6 21,5 18,4 1 1 9 5 N 1019,5 11 0 0,0
16.07.2019 02:00:00 13,4 9,3 10,9 21,7 18,4 9 5 16 9 NE 1019,2 15 0 0,0
16.07.2019 01:00:00 15,1 9,7 10,7 21,8 18,4 9 5 15 8 NE 1018,8 24 0 0,0
16.07.2019 00:00:00 17,1 9,5 11,1 21,9 18,4 4 2 11 6 N 1018,2 22 0 0,0
15.07.2019 23:00:00 18,1 9,7 13,0 21,9 18,4 6 3 14 8 N 1017,9 27 0 0,0
15.07.2019 22:00:00 19,0 9,7 16,6 22,0 18,5 5 3 25 14 NNW 1017,5 19 1 0,0
15.07.2019 21:00:00 20,5 9,7 19,7 21,9 18,5 16 9 29 16 NNW 1017,1 43 25 0,0
15.07.2019 20:00:00 22,2 9,7 24,1 21,7 18,5 19 10 32 18 NNW 1016,6 32 60 0,0
15.07.2019 19:00:00 23,0 9,7 27,4 21,5 18,4 20 11 38 21 N 1016,3 60 60 0,0
15.07.2019 18:00:00 23,6 9,2 30,0 21,2 18,4 16 9 33 18 NNW 1016,2 31 57 0,0
15.07.2019 17:00:00 23,6 8,8 27,8 20,9 18,4 12 6 36 19 NW 1016,4 20 55 0,0
15.07.2019 16:00:00 23,4 9,0 27,0 20,6 18,4 16 9 35 19 NNW 1016,7 57 47 0,0

tt = Température de l'air
td = dewpoint
tt 5cm = Température de l'air 5cm
tt -20cm = Température de l'air -20cm
tt -100cm = Température de l'air -100cm
ff = Vitesse du vent
fx = gusts
dd = Direction du vent
ppp = reduced air pressure
vv = visibility
sd = Ensoleillement
rr = Quantités de précipitations

stations d'obs. à proximité